Time,TemperatureF,DewpointF,PressureIn,WindDirection,WindDirectionDegrees,WindSpeedMPH,WindSpeedGustMPH,Humidity,HourlyPrecipIn,Conditions,Clouds,dailyrainin,SoftwareType,DateUTC
2013-11-23 00:03:00,42.3,36.0,30.28,NNE,24,2.0,6.9,78,0.00,,,0.00,meteobridge,2013-11-23 05:03:00,
2013-11-23 00:08:00,42.3,35.6,30.28,NW,308,0.9,8.1,77,0.00,,,0.00,meteobridge,2013-11-23 05:08:00,
2013-11-23 00:14:00,42.3,36.0,30.28,NW,312,0.0,4.0,78,0.00,,,0.00,meteobridge,2013-11-23 05:14:00,
2013-11-23 00:19:00,42.3,36.0,30.29,NNW,344,0.9,0.9,78,0.00,,,0.00,meteobridge,2013-11-23 05:19:00,
2013-11-23 00:24:00,42.3,36.0,30.29,North,6,0.0,2.0,78,0.00,,,0.00,meteobridge,2013-11-23 05:24:00,
2013-11-23 00:29:00,42.3,36.1,30.29,North,6,0.0,0.0,79,0.00,,,0.00,meteobridge,2013-11-23 05:29:00,
2013-11-23 00:34:00,42.1,36.0,30.29,North,6,0.0,2.0,79,0.00,,,0.00,meteobridge,2013-11-23 05:34:00,
2013-11-23 00:39:00,41.9,35.6,30.29,North,359,0.9,2.9,78,0.00,,,0.00,meteobridge,2013-11-23 05:39:00,
2013-11-23 00:44:00,41.7,35.4,30.27,North,0,0.0,0.9,78,0.00,,,0.00,meteobridge,2013-11-23 05:44:00,
2013-11-23 00:49:00,41.7,35.4,30.27,North,354,0.9,0.9,78,0.00,,,0.00,meteobridge,2013-11-23 05:49:00,
2013-11-23 00:54:00,41.7,35.4,30.27,North,0,0.0,0.9,78,0.00,,,0.00,meteobridge,2013-11-23 05:54:00,
2013-11-23 00:59:00,41.5,35.2,30.27,NNE,24,0.0,0.9,78,0.00,,,0.00,meteobridge,2013-11-23 05:59:00,
2013-11-23 01:05:00,41.5,35.2,30.27,NNE,24,0.0,2.0,78,0.00,,,0.00,meteobridge,2013-11-23 06:05:00,
2013-11-23 01:10:00,41.5,35.2,30.27,North,357,0.9,2.0,78,0.00,,,0.00,meteobridge,2013-11-23 06:10:00,
2013-11-23 01:15:00,41.5,35.2,30.27,NNW,328,0.9,4.0,78,0.00,,,0.00,meteobridge,2013-11-23 06:15:00,
2013-11-23 01:20:00,41.4,35.1,30.27,North,3,0.0,6.0,78,0.00,,,0.00,meteobridge,2013-11-23 06:20:00,
2013-11-23 01:25:00,41.4,35.1,30.27,NW,315,0.0,2.9,78,0.00,,,0.00,meteobridge,2013-11-23 06:25:00,
2013-11-23 01:30:00,41.4,35.1,30.27,North,4,0.9,2.9,78,0.00,,,0.00,meteobridge,2013-11-23 06:30:00,
2013-11-23 01:35:00,41.2,34.9,30.27,WSW,254,8.1,8.1,78,0.00,,,0.00,meteobridge,2013-11-23 06:35:00,
2013-11-23 01:40:00,41.2,34.9,30.27,WNW,284,2.9,8.9,78,0.00,,,0.00,meteobridge,2013-11-23 06:40:00,
2013-11-23 01:45:00,41.2,34.9,30.28,North,356,0.9,2.9,78,0.00,,,0.00,meteobridge,2013-11-23 06:45:00,
2013-11-23 01:50:00,40.8,34.9,30.28,NNE,21,0.9,6.0,79,0.00,,,0.00,meteobridge,2013-11-23 06:50:00,
2013-11-23 01:55:00,40.8,34.9,30.28,WNW,292,0.0,10.1,79,0.00,,,0.00,meteobridge,2013-11-23 06:55:00,
2013-11-23 02:00:00,40.8,35.1,30.28,NNW,340,0.0,0.9,80,0.00,,,0.00,meteobridge,2013-11-23 07:00:00,
2013-11-23 02:05:00,40.8,35.1,30.28,WNW,296,2.9,2.9,80,0.00,,,0.00,meteobridge,2013-11-23 07:05:00,
2013-11-23 02:10:00,40.8,35.1,30.28,NW,305,0.0,4.9,80,0.00,,,0.00,meteobridge,2013-11-23 07:10:00,
2013-11-23 02:15:00,40.8,35.1,30.27,WNW,299,0.0,6.0,80,0.00,,,0.00,meteobridge,2013-11-23 07:15:00,
2013-11-23 02:20:00,40.6,34.9,30.27,NNW,335,0.9,2.0,80,0.00,,,0.00,meteobridge,2013-11-23 07:20:00,
2013-11-23 02:25:00,40.6,35.2,30.27,North,0,0.0,2.0,81,0.00,,,0.00,meteobridge,2013-11-23 07:25:00,
2013-11-23 02:30:00,40.6,35.2,30.29,WNW,294,0.0,2.0,81,0.00,,,0.00,meteobridge,2013-11-23 07:30:00,
2013-11-23 02:35:00,40.5,34.7,30.29,North,352,2.0,10.1,80,0.00,,,0.00,meteobridge,2013-11-23 07:35:00,
2013-11-23 02:40:00,40.3,34.9,30.29,WNW,299,0.0,2.0,81,0.00,,,0.00,meteobridge,2013-11-23 07:40:00,
2013-11-23 02:46:00,40.3,34.9,30.29,North,354,0.0,8.1,81,0.00,,,0.00,meteobridge,2013-11-23 07:46:00,
2013-11-23 02:51:00,40.3,34.5,30.29,West,267,0.0,6.0,80,0.00,,,0.00,meteobridge,2013-11-23 07:51:00,
2013-11-23 02:56:00,40.3,34.5,30.29,NNE,20,2.0,2.0,80,0.00,,,0.00,meteobridge,2013-11-23 07:56:00,
2013-11-23 03:01:00,40.1,34.5,30.29,WSW,246,6.0,6.9,80,0.00,,,0.00,meteobridge,2013-11-23 08:01:00,
2013-11-23 03:06:00,39.7,34.2,30.29,NW,311,4.0,8.1,80,0.00,,,0.00,meteobridge,2013-11-23 08:06:00,
2013-11-23 03:11:00,39.7,34.2,30.29,West,281,0.0,6.0,80,0.00,,,0.00,meteobridge,2013-11-23 08:11:00,
2013-11-23 03:16:00,39.6,34.0,30.30,WSW,258,0.0,2.0,80,0.00,,,0.00,meteobridge,2013-11-23 08:16:00,
2013-11-23 03:21:00,39.6,34.0,30.30,WNW,284,0.0,0.9,80,0.00,,,0.00,meteobridge,2013-11-23 08:21:00,
2013-11-23 03:26:00,39.6,34.0,30.30,WNW,285,0.0,4.0,80,0.00,,,0.00,meteobridge,2013-11-23 08:26:00,
2013-11-23 03:31:00,39.6,33.6,30.29,West,274,0.9,6.0,79,0.00,,,0.00,meteobridge,2013-11-23 08:31:00,
2013-11-23 03:36:00,39.4,33.4,30.29,West,268,0.0,6.0,79,0.00,,,0.00,meteobridge,2013-11-23 08:36:00,
2013-11-23 03:41:00,39.2,33.3,30.29,NW,325,2.0,2.9,79,0.00,,,0.00,meteobridge,2013-11-23 08:41:00,
2013-11-23 03:47:00,39.2,32.9,30.29,WNW,292,0.0,4.9,78,0.00,,,0.00,meteobridge,2013-11-23 08:47:00,
2013-11-23 03:52:00,39.2,32.9,30.29,West,278,0.9,2.9,78,0.00,,,0.00,meteobridge,2013-11-23 08:52:00,
2013-11-23 03:57:00,39.0,32.7,30.29,West,281,0.0,4.0,78,0.00,,,0.00,meteobridge,2013-11-23 08:57:00,
2013-11-23 04:02:00,39.0,32.4,30.28,West,271,0.0,2.9,77,0.00,,,0.00,meteobridge,2013-11-23 09:02:00,
2013-11-23 04:12:00,38.8,32.0,30.28,NNW,328,0.0,2.9,76,0.00,,,0.00,meteobridge,2013-11-23 09:12:00,
2013-11-23 04:17:00,38.8,32.0,30.28,WNW,285,2.0,6.0,76,0.00,,,0.00,meteobridge,2013-11-23 09:17:00,
2013-11-23 04:22:00,38.8,32.0,30.28,West,278,0.0,0.9,76,0.00,,,0.00,meteobridge,2013-11-23 09:22:00,
2013-11-23 04:28:00,38.8,32.0,30.28,WNW,285,2.0,6.0,76,0.00,,,0.00,meteobridge,2013-11-23 09:28:00,
2013-11-23 04:33:00,38.8,32.0,30.29,WNW,299,0.0,0.0,76,0.00,,,0.00,meteobridge,2013-11-23 09:33:00,
2013-11-23 04:38:00,38.8,32.0,30.29,WNW,296,2.0,4.0,76,0.00,,,0.00,meteobridge,2013-11-23 09:38:00,
2013-11-23 04:43:00,38.7,31.8,30.29,WNW,294,2.9,4.0,76,0.00,,,0.00,meteobridge,2013-11-23 09:43:00,
2013-11-23 04:48:00,38.7,31.8,30.29,North,359,0.0,0.9,76,0.00,,,0.00,meteobridge,2013-11-23 09:48:00,
2013-11-23 04:53:00,38.5,31.6,30.29,NW,304,0.0,0.0,76,0.00,,,0.00,meteobridge,2013-11-23 09:53:00,
2013-11-23 04:58:00,38.5,31.6,30.29,WNW,284,2.9,6.0,76,0.00,,,0.00,meteobridge,2013-11-23 09:58:00,
2013-11-23 05:03:00,38.3,31.1,30.29,West,274,0.0,2.9,75,0.00,,,0.00,meteobridge,2013-11-23 10:03:00,
2013-11-23 05:08:00,38.1,30.9,30.29,WNW,282,0.0,4.9,75,0.00,,,0.00,meteobridge,2013-11-23 10:08:00,
2013-11-23 05:13:00,37.9,30.7,30.29,WNW,289,2.0,6.0,75,0.00,,,0.00,meteobridge,2013-11-23 10:13:00,
2013-11-23 05:18:00,37.9,30.7,30.30,West,278,0.9,6.0,75,0.00,,,0.00,meteobridge,2013-11-23 10:18:00,
2013-11-23 05:24:00,37.9,30.7,30.30,WNW,285,0.9,0.9,75,0.00,,,0.00,meteobridge,2013-11-23 10:24:00,
2013-11-23 05:29:00,37.8,30.6,30.30,WNW,287,0.0,4.0,75,0.00,,,0.00,meteobridge,2013-11-23 10:29:00,
2013-11-23 05:34:00,37.6,30.0,30.30,WNW,292,0.0,6.9,74,0.00,,,0.00,meteobridge,2013-11-23 10:34:00,
2013-11-23 05:39:00,37.6,30.4,30.30,WNW,302,2.9,8.1,75,0.00,,,0.00,meteobridge,2013-11-23 10:39:00,
2013-11-23 05:44:00,37.6,30.0,30.30,WNW,301,2.0,6.0,74,0.00,,,0.00,meteobridge,2013-11-23 10:44:00,
2013-11-23 05:49:00,37.2,29.7,30.30,West,274,0.0,6.0,74,0.00,,,0.00,meteobridge,2013-11-23 10:49:00,
2013-11-23 05:54:00,37.2,29.7,30.30,WNW,287,6.0,11.0,74,0.00,,,0.00,meteobridge,2013-11-23 10:54:00,
2013-11-23 05:59:00,37.2,29.7,30.30,West,277,2.0,6.9,74,0.00,,,0.00,meteobridge,2013-11-23 10:59:00,
2013-11-23 06:04:00,37.2,30.0,30.31,WNW,282,2.0,6.9,75,0.00,,,0.00,meteobridge,2013-11-23 11:04:00,
2013-11-23 06:09:00,37.2,30.0,30.31,West,271,2.0,8.1,75,0.00,,,0.00,meteobridge,2013-11-23 11:09:00,
2013-11-23 06:14:00,37.0,29.5,30.31,West,274,0.0,6.0,74,0.00,,,0.00,meteobridge,2013-11-23 11:14:00,
2013-11-23 06:19:00,37.0,29.8,30.32,NW,304,0.0,2.9,75,0.00,,,0.00,meteobridge,2013-11-23 11:19:00,
2013-11-23 06:24:00,36.9,29.3,30.32,West,281,2.9,6.0,74,0.00,,,0.00,meteobridge,2013-11-23 11:24:00,
2013-11-23 06:29:00,36.9,29.3,30.32,WNW,289,0.0,4.0,74,0.00,,,0.00,meteobridge,2013-11-23 11:29:00,
2013-11-23 06:34:00,36.9,29.3,30.32,NNW,344,0.0,4.9,74,0.00,,,0.00,meteobridge,2013-11-23 11:34:00,
2013-11-23 06:40:00,36.9,29.3,30.32,NNW,347,0.0,0.0,74,0.00,,,0.00,meteobridge,2013-11-23 11:40:00,
2013-11-23 06:45:00,36.7,29.1,30.33,NW,325,2.9,10.1,74,0.00,,,0.00,meteobridge,2013-11-23 11:45:00,
2013-11-23 06:50:00,36.7,28.8,30.33,WNW,292,0.0,0.0,73,0.00,,,0.00,meteobridge,2013-11-23 11:50:00,
2013-11-23 06:55:00,36.5,28.8,30.33,WNW,295,0.0,2.9,73,0.00,,,0.00,meteobridge,2013-11-23 11:55:00,
2013-11-23 07:00:00,36.5,28.8,30.33,WNW,288,4.9,6.0,73,0.00,,,0.00,meteobridge,2013-11-23 12:00:00,
2013-11-23 07:05:00,36.3,28.8,30.33,WNW,289,0.0,2.9,74,0.00,,,0.00,meteobridge,2013-11-23 12:05:00,
2013-11-23 07:10:00,36.3,28.6,30.33,NNW,329,2.0,2.9,73,0.00,,,0.00,meteobridge,2013-11-23 12:10:00,
2013-11-23 07:15:00,36.1,28.4,30.34,NW,309,0.0,0.9,73,0.00,,,0.00,meteobridge,2013-11-23 12:15:00,
2013-11-23 07:20:00,36.1,28.4,30.34,WNW,296,2.0,2.0,73,0.00,,,0.00,meteobridge,2013-11-23 12:20:00,
2013-11-23 07:25:00,36.1,28.6,30.34,WNW,298,0.9,2.0,74,0.00,,,0.00,meteobridge,2013-11-23 12:25:00,
2013-11-23 07:30:00,36.0,28.2,30.33,West,281,0.9,4.9,73,0.00,,,0.00,meteobridge,2013-11-23 12:30:00,
2013-11-23 07:35:00,36.0,28.2,30.33,WNW,284,0.0,0.0,73,0.00,,,0.00,meteobridge,2013-11-23 12:35:00,
2013-11-23 07:40:00,36.0,28.2,30.33,North,353,0.0,0.9,73,0.00,,,0.00,meteobridge,2013-11-23 12:40:00,
2013-11-23 07:45:00,36.0,28.2,30.34,WNW,298,4.9,4.9,73,0.00,,,0.00,meteobridge,2013-11-23 12:45:00,
2013-11-23 07:50:00,36.0,28.2,30.34,NW,313,0.0,0.9,73,0.00,,,0.00,meteobridge,2013-11-23 12:50:00,
2013-11-23 08:00:00,35.8,27.7,30.34,North,7,0.0,2.0,72,0.00,,,0.00,meteobridge,2013-11-23 13:00:00,
2013-11-23 08:05:00,35.8,27.7,30.34,North,0,2.0,2.9,72,0.00,,,0.00,meteobridge,2013-11-23 13:05:00,
2013-11-23 08:10:00,35.8,28.0,30.34,WNW,301,0.0,4.0,73,0.00,,,0.00,meteobridge,2013-11-23 13:10:00,
2013-11-23 08:15:00,35.8,28.0,30.34,NW,316,2.9,2.9,73,0.00,,,0.00,meteobridge,2013-11-23 13:15:00,
2013-11-23 08:21:00,35.8,27.7,30.34,NNW,333,0.0,2.0,72,0.00,,,0.00,meteobridge,2013-11-23 13:21:00,
2013-11-23 08:26:00,35.8,27.7,30.34,North,0,0.0,4.9,72,0.00,,,0.00,meteobridge,2013-11-23 13:26:00,
2013-11-23 08:31:00,35.8,27.7,30.35,NW,309,0.0,4.9,72,0.00,,,0.00,meteobridge,2013-11-23 13:31:00,
2013-11-23 08:36:00,36.0,28.2,30.35,North,0,0.0,0.0,73,0.00,,,0.00,meteobridge,2013-11-23 13:36:00,
2013-11-23 08:41:00,36.0,28.2,30.35,NW,308,2.0,4.9,73,0.00,,,0.00,meteobridge,2013-11-23 13:41:00,
2013-11-23 08:46:00,36.0,27.9,30.35,West,281,2.0,6.0,72,0.00,,,0.00,meteobridge,2013-11-23 13:46:00,
2013-11-23 08:51:00,35.8,27.7,30.35,West,274,0.0,6.9,72,0.00,,,0.00,meteobridge,2013-11-23 13:51:00,
2013-11-23 08:56:00,35.6,27.5,30.35,West,275,0.9,6.9,72,0.00,,,0.00,meteobridge,2013-11-23 13:56:00,
2013-11-23 09:01:00,35.8,27.7,30.35,WNW,289,2.0,4.9,72,0.00,,,0.00,meteobridge,2013-11-23 14:01:00,
2013-11-23 09:06:00,36.0,27.9,30.35,WNW,291,2.0,2.0,72,0.00,,,0.00,meteobridge,2013-11-23 14:06:00,
2013-11-23 09:11:00,36.0,27.9,30.35,WNW,291,4.9,4.9,72,0.00,,,0.00,meteobridge,2013-11-23 14:11:00,
2013-11-23 09:16:00,36.0,27.5,30.35,WNW,282,2.0,4.9,71,0.00,,,0.00,meteobridge,2013-11-23 14:16:00,
2013-11-23 09:21:00,36.0,27.5,30.35,West,278,0.0,2.9,71,0.00,,,0.00,meteobridge,2013-11-23 14:21:00,
2013-11-23 09:27:00,36.0,27.5,30.35,WNW,294,0.0,4.9,71,0.00,,,0.00,meteobridge,2013-11-23 14:27:00,
2013-11-23 09:32:00,36.1,27.7,30.35,WNW,287,0.0,2.9,71,0.00,,,0.00,meteobridge,2013-11-23 14:32:00,
2013-11-23 09:37:00,36.5,28.0,30.35,West,275,0.9,2.9,71,0.00,,,0.00,meteobridge,2013-11-23 14:37:00,
2013-11-23 09:42:00,36.5,27.7,30.35,West,271,0.0,8.1,70,0.00,,,0.00,meteobridge,2013-11-23 14:42:00,
2013-11-23 09:47:00,36.7,27.9,30.35,West,280,2.9,4.9,70,0.00,,,0.00,meteobridge,2013-11-23 14:47:00,
2013-11-23 09:52:00,36.9,28.0,30.35,WNW,282,2.0,6.9,70,0.00,,,0.00,meteobridge,2013-11-23 14:52:00,
2013-11-23 09:57:00,36.7,27.5,30.35,West,274,8.1,8.1,69,0.00,,,0.00,meteobridge,2013-11-23 14:57:00,
2013-11-23 10:02:00,36.9,28.0,30.35,North,3,2.0,6.9,70,0.00,,,0.00,meteobridge,2013-11-23 15:02:00,
2013-11-23 10:08:00,37.2,28.4,30.35,WSW,258,0.0,6.0,70,0.00,,,0.00,meteobridge,2013-11-23 15:08:00,
2013-11-23 10:13:00,37.6,28.4,30.35,WNW,287,2.0,4.9,69,0.00,,,0.00,meteobridge,2013-11-23 15:13:00,
2013-11-23 10:18:00,37.9,28.0,30.35,NNE,30,0.0,10.1,67,0.00,,,0.00,meteobridge,2013-11-23 15:18:00,
2013-11-23 10:23:00,37.9,27.7,30.35,West,280,2.9,4.9,66,0.00,,,0.00,meteobridge,2013-11-23 15:23:00,
2013-11-23 10:28:00,37.9,27.7,30.35,West,278,2.0,6.9,66,0.00,,,0.00,meteobridge,2013-11-23 15:28:00,
2013-11-23 10:33:00,38.8,28.4,30.35,WSW,253,2.0,6.9,66,0.00,,,0.00,meteobridge,2013-11-23 15:33:00,
2013-11-23 10:38:00,38.8,28.0,30.35,West,268,2.0,6.9,65,0.00,,,0.00,meteobridge,2013-11-23 15:38:00,
2013-11-23 10:43:00,38.3,27.1,30.35,West,277,4.9,8.1,64,0.00,,,0.00,meteobridge,2013-11-23 15:43:00,
2013-11-23 10:48:00,37.6,27.0,30.35,West,277,0.0,6.9,65,0.00,,,0.00,meteobridge,2013-11-23 15:48:00,
2013-11-23 10:53:00,37.9,26.8,30.35,West,260,6.9,17.9,64,0.00,,,0.00,meteobridge,2013-11-23 15:53:00,
2013-11-23 10:58:00,38.1,27.3,30.35,West,270,2.9,2.9,65,0.00,,,0.00,meteobridge,2013-11-23 15:58:00,
2013-11-23 11:03:00,38.8,27.7,30.34,North,11,0.9,2.9,64,0.00,,,0.00,meteobridge,2013-11-23 16:03:00,
2013-11-23 11:08:00,38.8,27.0,30.34,North,0,0.9,6.9,62,0.00,,,0.00,meteobridge,2013-11-23 16:08:00,
2013-11-23 11:13:00,38.8,27.7,30.34,NE,56,0.0,2.9,64,0.00,,,0.00,meteobridge,2013-11-23 16:13:00,
2013-11-23 11:18:00,38.8,27.3,30.33,WNW,299,4.9,11.0,63,0.00,,,0.00,meteobridge,2013-11-23 16:18:00,
2013-11-23 11:23:00,39.2,28.0,30.33,West,281,0.0,4.0,64,0.00,,,0.00,meteobridge,2013-11-23 16:23:00,
2013-11-23 11:28:00,39.7,27.3,30.33,West,271,6.0,8.9,61,0.00,,,0.00,meteobridge,2013-11-23 16:28:00,
2013-11-23 11:33:00,39.9,28.0,30.33,WSW,243,2.0,10.1,62,0.00,,,0.00,meteobridge,2013-11-23 16:33:00,
2013-11-23 11:38:00,39.7,27.9,30.33,WNW,291,0.0,8.1,62,0.00,,,0.00,meteobridge,2013-11-23 16:38:00,
2013-11-23 11:43:00,39.9,27.5,30.33,NW,308,0.0,2.9,61,0.00,,,0.00,meteobridge,2013-11-23 16:43:00,
2013-11-23 11:48:00,40.3,27.9,30.32,NNE,18,0.9,2.9,61,0.00,,,0.00,meteobridge,2013-11-23 16:48:00,
2013-11-23 11:53:00,40.1,27.3,30.32,North,0,2.0,12.1,60,0.00,,,0.00,meteobridge,2013-11-23 16:53:00,
2013-11-23 11:58:00,40.3,27.9,30.32,West,270,2.9,6.9,61,0.00,,,0.00,meteobridge,2013-11-23 16:58:00,
2013-11-23 12:03:00,40.6,27.9,30.31,SW,223,4.9,6.9,60,0.00,,,0.00,meteobridge,2013-11-23 17:03:00,
2013-11-23 12:08:00,40.8,27.7,30.31,WNW,291,4.0,6.0,59,0.00,,,0.00,meteobridge,2013-11-23 17:08:00,
2013-11-23 12:13:00,40.6,27.5,30.31,WNW,284,2.9,6.9,59,0.00,,,0.00,meteobridge,2013-11-23 17:13:00,
2013-11-23 12:18:00,40.6,27.9,30.30,West,264,6.0,11.0,60,0.00,,,0.00,meteobridge,2013-11-23 17:18:00,
2013-11-23 12:24:00,41.2,27.9,30.30,WNW,285,2.9,6.0,59,0.00,,,0.00,meteobridge,2013-11-23 17:24:00,
2013-11-23 12:29:00,41.4,27.3,30.30,NW,311,2.0,8.1,57,0.00,,,0.00,meteobridge,2013-11-23 17:29:00,
2013-11-23 12:34:00,41.2,27.9,30.30,WSW,257,2.0,4.9,59,0.00,,,0.00,meteobridge,2013-11-23 17:34:00,
2013-11-23 12:39:00,41.2,27.9,30.30,WNW,287,0.9,6.9,59,0.00,,,0.00,meteobridge,2013-11-23 17:39:00,
2013-11-23 12:44:00,40.8,27.7,30.30,WSW,248,0.0,4.9,59,0.00,,,0.00,meteobridge,2013-11-23 17:44:00,
2013-11-23 12:49:00,40.8,27.1,30.29,West,270,2.9,8.1,58,0.00,,,0.00,meteobridge,2013-11-23 17:49:00,
2013-11-23 12:54:00,40.8,26.8,30.29,NW,326,4.9,10.1,57,0.00,,,0.00,meteobridge,2013-11-23 17:54:00,
2013-11-23 12:59:00,40.8,26.8,30.29,SSW,210,0.9,4.9,57,0.00,,,0.00,meteobridge,2013-11-23 17:59:00,
2013-11-23 13:04:00,41.2,27.1,30.29,West,267,0.9,8.1,57,0.00,,,0.00,meteobridge,2013-11-23 18:04:00,
2013-11-23 13:09:00,41.2,27.1,30.29,WSW,241,2.0,8.1,57,0.00,,,0.00,meteobridge,2013-11-23 18:09:00,
2013-11-23 13:14:00,41.5,27.5,30.29,WSW,251,4.0,10.1,57,0.00,,,0.00,meteobridge,2013-11-23 18:14:00,
2013-11-23 13:19:00,41.9,27.3,30.28,West,265,2.0,8.1,56,0.00,,,0.00,meteobridge,2013-11-23 18:19:00,
2013-11-23 13:24:00,42.6,28.0,30.28,West,271,6.9,10.1,56,0.00,,,0.00,meteobridge,2013-11-23 18:24:00,
2013-11-23 13:29:00,42.8,27.3,30.28,West,263,8.1,8.1,54,0.00,,,0.00,meteobridge,2013-11-23 18:29:00,
2013-11-23 13:34:00,43.3,27.9,30.27,West,264,2.9,10.1,54,0.00,,,0.00,meteobridge,2013-11-23 18:34:00,
2013-11-23 13:39:00,43.5,26.6,30.27,West,263,4.0,6.9,51,0.00,,,0.00,meteobridge,2013-11-23 18:39:00,
2013-11-23 13:44:00,43.5,26.1,30.27,NW,318,6.9,11.0,50,0.00,,,0.00,meteobridge,2013-11-23 18:44:00,
2013-11-23 13:49:00,43.3,25.9,30.27,WSW,257,2.9,8.1,50,0.00,,,0.00,meteobridge,2013-11-23 18:49:00,
2013-11-23 13:59:00,43.9,26.4,30.27,West,264,2.0,8.1,50,0.00,,,0.00,meteobridge,2013-11-23 18:59:00,
2013-11-23 14:04:00,43.9,25.0,30.27,WSW,247,4.9,8.9,47,0.00,,,0.00,meteobridge,2013-11-23 19:04:00,
2013-11-23 14:09:00,44.1,23.5,30.27,West,263,2.9,8.1,44,0.00,,,0.00,meteobridge,2013-11-23 19:09:00,
2013-11-23 14:14:00,43.9,22.3,30.27,West,272,6.0,17.0,42,0.00,,,0.00,meteobridge,2013-11-23 19:14:00,
2013-11-23 14:19:00,43.9,23.4,30.25,West,281,6.9,10.1,44,0.00,,,0.00,meteobridge,2013-11-23 19:19:00,
2013-11-23 14:24:00,44.1,20.1,30.25,West,261,2.0,8.1,38,0.00,,,0.00,meteobridge,2013-11-23 19:24:00,
2013-11-23 14:29:00,43.9,15.3,30.25,WNW,298,2.9,10.1,31,0.00,,,0.00,meteobridge,2013-11-23 19:29:00,
2013-11-23 14:34:00,43.3,14.0,30.25,WSW,250,6.0,17.0,30,0.00,,,0.00,meteobridge,2013-11-23 19:34:00,
2013-11-23 14:39:00,43.3,14.7,30.25,West,274,2.9,11.0,31,0.00,,,0.00,meteobridge,2013-11-23 19:39:00,
2013-11-23 14:44:00,43.9,13.6,30.25,WNW,292,0.9,6.9,29,0.00,,,0.00,meteobridge,2013-11-23 19:44:00,
2013-11-23 14:49:00,43.9,14.4,30.25,WNW,302,11.0,17.0,30,0.00,,,0.00,meteobridge,2013-11-23 19:49:00,
2013-11-23 14:54:00,43.5,14.2,30.25,West,268,6.9,8.1,30,0.00,,,0.00,meteobridge,2013-11-23 19:54:00,
2013-11-23 14:59:00,44.1,14.5,30.25,West,281,2.9,8.1,30,0.00,,,0.00,meteobridge,2013-11-23 19:59:00,
2013-11-23 15:04:00,43.9,14.4,30.25,West,271,4.9,13.0,30,0.00,,,0.00,meteobridge,2013-11-23 20:04:00,
2013-11-23 15:09:00,43.9,16.0,30.25,WSW,253,2.9,16.1,32,0.00,,,0.00,meteobridge,2013-11-23 20:09:00,
2013-11-23 15:14:00,43.9,16.0,30.25,WNW,288,0.0,8.1,32,0.00,,,0.00,meteobridge,2013-11-23 20:14:00,
2013-11-23 15:19:00,44.4,16.3,30.26,West,274,6.9,8.1,32,0.00,,,0.00,meteobridge,2013-11-23 20:19:00,
2013-11-23 15:24:00,43.9,15.3,30.26,West,270,11.0,19.0,31,0.00,,,0.00,meteobridge,2013-11-23 20:24:00,
2013-11-23 15:29:00,43.5,14.9,30.26,West,278,0.9,12.1,31,0.00,,,0.00,meteobridge,2013-11-23 20:29:00,
2013-11-23 15:34:00,43.9,15.3,30.26,NW,309,13.0,17.0,31,0.00,,,0.00,meteobridge,2013-11-23 20:34:00,
2013-11-23 15:39:00,43.9,17.2,30.26,West,272,6.9,6.9,34,0.00,,,0.00,meteobridge,2013-11-23 20:39:00,
2013-11-23 15:44:00,43.9,18.0,30.26,WNW,285,6.0,8.1,35,0.00,,,0.00,meteobridge,2013-11-23 20:44:00,
2013-11-23 15:49:00,44.1,17.4,30.27,WNW,291,2.9,8.9,34,0.00,,,0.00,meteobridge,2013-11-23 20:49:00,
2013-11-23 15:54:00,43.5,17.1,30.27,West,272,2.9,13.0,34,0.00,,,0.00,meteobridge,2013-11-23 20:54:00,
2013-11-23 15:59:00,43.3,18.1,30.27,West,277,4.9,8.1,36,0.00,,,0.00,meteobridge,2013-11-23 20:59:00,
2013-11-23 16:04:00,42.6,16.9,30.27,West,267,2.0,14.1,35,0.00,,,0.00,meteobridge,2013-11-23 21:04:00,
2013-11-23 16:09:00,42.3,17.8,30.27,WSW,239,4.0,12.1,37,0.00,,,0.00,meteobridge,2013-11-23 21:09:00,
2013-11-23 16:14:00,42.3,18.5,30.27,WNW,295,0.9,6.0,38,0.00,,,0.00,meteobridge,2013-11-23 21:14:00,
2013-11-23 16:19:00,42.1,17.6,30.27,West,277,6.9,6.9,37,0.00,,,0.00,meteobridge,2013-11-23 21:19:00,
2013-11-23 16:24:00,41.7,18.0,30.27,WNW,298,10.1,10.1,38,0.00,,,0.00,meteobridge,2013-11-23 21:24:00,
2013-11-23 16:29:00,41.5,17.2,30.28,West,274,10.1,17.0,37,0.00,,,0.00,meteobridge,2013-11-23 21:29:00,
2013-11-23 16:34:00,40.8,16.0,30.28,West,275,6.9,17.9,36,0.00,,,0.00,meteobridge,2013-11-23 21:34:00,
2013-11-23 16:39:00,40.5,16.2,30.28,West,263,4.9,8.1,37,0.00,,,0.00,meteobridge,2013-11-23 21:39:00,
2013-11-23 16:44:00,39.9,14.5,30.29,NW,312,0.9,13.0,35,0.00,,,0.00,meteobridge,2013-11-23 21:44:00,
2013-11-23 16:49:00,39.2,13.1,30.29,WNW,294,6.0,14.1,34,0.00,,,0.00,meteobridge,2013-11-23 21:49:00,
2013-11-23 16:54:00,38.5,11.8,30.29,West,275,10.1,16.1,33,0.00,,,0.00,meteobridge,2013-11-23 21:54:00,
2013-11-23 16:59:00,38.1,12.2,30.30,WNW,285,12.1,16.1,34,0.00,,,0.00,meteobridge,2013-11-23 21:59:00,
2013-11-23 17:04:00,37.8,13.3,30.30,NNW,335,6.9,13.0,36,0.00,,,0.00,meteobridge,2013-11-23 22:04:00,
2013-11-23 17:09:00,37.6,14.2,30.30,NNW,337,6.9,14.1,38,0.00,,,0.00,meteobridge,2013-11-23 22:09:00,
2013-11-23 17:14:00,37.2,15.1,30.31,WNW,282,8.1,21.0,40,0.00,,,0.00,meteobridge,2013-11-23 22:14:00,
2013-11-23 17:19:00,37.0,16.2,30.31,West,272,4.0,16.1,42,0.00,,,0.00,meteobridge,2013-11-23 22:19:00,
2013-11-23 17:24:00,36.9,17.1,30.31,West,263,17.0,19.9,44,0.00,,,0.00,meteobridge,2013-11-23 22:24:00,
2013-11-23 17:29:00,36.9,17.4,30.32,NW,306,0.0,17.9,45,0.00,,,0.00,meteobridge,2013-11-23 22:29:00,
2013-11-23 17:34:00,36.7,17.8,30.32,WNW,288,6.9,16.1,46,0.00,,,0.00,meteobridge,2013-11-23 22:34:00,
2013-11-23 17:39:00,36.5,17.6,30.32,WSW,254,4.9,12.1,46,0.00,,,0.00,meteobridge,2013-11-23 22:39:00,
2013-11-23 17:44:00,36.3,18.0,30.33,WNW,287,6.9,10.1,47,0.00,,,0.00,meteobridge,2013-11-23 22:44:00,
2013-11-23 17:49:00,36.0,18.1,30.33,WNW,288,10.1,17.9,48,0.00,,,0.00,meteobridge,2013-11-23 22:49:00,
2013-11-23 17:54:00,36.0,18.7,30.33,West,277,6.0,16.1,49,0.00,,,0.00,meteobridge,2013-11-23 22:54:00,
2013-11-23 17:59:00,35.6,18.3,30.34,WNW,282,6.0,12.1,49,0.00,,,0.00,meteobridge,2013-11-23 22:59:00,
2013-11-23 18:04:00,35.2,18.5,30.34,West,278,0.9,17.9,50,0.00,,,0.00,meteobridge,2013-11-23 23:04:00,
2013-11-23 18:09:00,35.2,18.5,30.34,WNW,289,10.1,17.9,50,0.00,,,0.00,meteobridge,2013-11-23 23:09:00,
2013-11-23 18:14:00,35.2,18.0,30.34,WSW,257,6.0,6.9,49,0.00,,,0.00,meteobridge,2013-11-23 23:14:00,
2013-11-23 18:19:00,35.1,17.8,30.34,WSW,246,4.0,17.0,49,0.00,,,0.00,meteobridge,2013-11-23 23:19:00,
2013-11-23 18:24:00,34.7,18.0,30.34,West,275,2.0,13.0,50,0.00,,,0.00,meteobridge,2013-11-23 23:24:00,
2013-11-23 18:29:00,34.5,17.8,30.35,WNW,291,4.0,11.0,50,0.00,,,0.00,meteobridge,2013-11-23 23:29:00,
2013-11-23 18:34:00,34.3,18.1,30.35,WNW,292,6.9,14.1,51,0.00,,,0.00,meteobridge,2013-11-23 23:34:00,
2013-11-23 18:39:00,34.2,18.0,30.35,SE,133,2.0,16.1,51,0.00,,,0.00,meteobridge,2013-11-23 23:39:00,
2013-11-23 18:44:00,34.0,18.1,30.36,WNW,294,2.0,10.1,52,0.00,,,0.00,meteobridge,2013-11-23 23:44:00,
2013-11-23 18:49:00,33.8,18.5,30.36,WNW,285,4.0,4.9,53,0.00,,,0.00,meteobridge,2013-11-23 23:49:00,
2013-11-23 18:54:00,33.6,18.7,30.36,WNW,298,10.1,14.1,54,0.00,,,0.00,meteobridge,2013-11-23 23:54:00,
2013-11-23 18:59:00,33.6,18.7,30.37,WNW,289,4.0,12.1,54,0.00,,,0.00,meteobridge,2013-11-23 23:59:00,
2013-11-23 19:04:00,33.4,18.5,30.37,WNW,284,2.9,8.1,54,0.00,,,0.00,meteobridge,2013-11-24 00:04:00,
2013-11-23 19:09:00,33.4,18.5,30.37,West,264,4.9,12.1,54,0.00,,,0.00,meteobridge,2013-11-24 00:09:00,
2013-11-23 19:14:00,33.4,18.1,30.37,West,277,4.9,16.1,53,0.00,,,0.00,meteobridge,2013-11-24 00:14:00,
2013-11-23 19:19:00,33.4,18.1,30.37,North,0,2.9,10.1,53,0.00,,,0.00,meteobridge,2013-11-24 00:19:00,
2013-11-23 19:24:00,33.3,20.5,30.37,WNW,289,2.9,6.9,59,0.00,,,0.00,meteobridge,2013-11-24 00:24:00,
2013-11-23 19:29:00,32.7,19.9,30.39,West,274,2.9,6.9,59,0.00,,,0.00,meteobridge,2013-11-24 00:29:00,
2013-11-23 19:34:00,32.2,19.0,30.39,West,272,13.0,14.1,58,0.00,,,0.00,meteobridge,2013-11-24 00:34:00,
2013-11-23 19:39:00,32.2,19.0,30.39,WSW,240,2.9,14.1,58,0.00,,,0.00,meteobridge,2013-11-24 00:39:00,
2013-11-23 19:44:00,32.2,19.0,30.40,WNW,288,12.1,12.1,58,0.00,,,0.00,meteobridge,2013-11-24 00:44:00,
2013-11-23 19:49:00,31.8,19.0,30.40,WNW,299,6.9,17.9,59,0.00,,,0.00,meteobridge,2013-11-24 00:49:00,
2013-11-23 19:54:00,31.8,19.6,30.40,WNW,292,6.0,19.0,60,0.00,,,0.00,meteobridge,2013-11-24 00:54:00,
2013-11-23 19:59:00,31.6,19.8,30.40,WNW,285,2.9,6.0,61,0.00,,,0.00,meteobridge,2013-11-24 00:59:00,
2013-11-23 20:04:00,31.5,19.6,30.40,West,268,2.9,14.1,61,0.00,,,0.00,meteobridge,2013-11-24 01:04:00,
2013-11-23 20:10:00,31.5,19.6,30.40,West,267,0.9,4.9,61,0.00,,,0.00,meteobridge,2013-11-24 01:10:00,
2013-11-23 20:15:00,31.5,19.6,30.41,WNW,288,6.9,11.0,61,0.00,,,0.00,meteobridge,2013-11-24 01:15:00,
2013-11-23 20:25:00,31.3,18.1,30.41,West,277,6.0,17.9,58,0.00,,,0.00,meteobridge,2013-11-24 01:25:00,
2013-11-23 20:30:00,31.3,18.1,30.41,WSW,256,11.0,16.1,58,0.00,,,0.00,meteobridge,2013-11-24 01:30:00,
2013-11-23 20:35:00,31.3,18.1,30.41,WNW,287,8.9,8.9,58,0.00,,,0.00,meteobridge,2013-11-24 01:35:00,
2013-11-23 20:40:00,31.3,18.1,30.41,West,265,13.0,17.0,58,0.00,,,0.00,meteobridge,2013-11-24 01:40:00,
2013-11-23 20:45:00,30.9,18.0,30.41,WSW,254,2.9,12.1,58,0.00,,,0.00,meteobridge,2013-11-24 01:45:00,
2013-11-23 20:50:00,30.9,18.0,30.41,North,350,11.0,19.0,58,0.00,,,0.00,meteobridge,2013-11-24 01:50:00,
2013-11-23 20:55:00,30.9,18.0,30.41,SW,227,0.9,17.0,58,0.00,,,0.00,meteobridge,2013-11-24 01:55:00,
2013-11-23 21:00:00,30.7,16.5,30.42,NNE,16,2.0,10.1,55,0.00,,,0.00,meteobridge,2013-11-24 02:00:00,
2013-11-23 21:05:00,30.4,15.8,30.42,NNE,16,0.0,11.0,54,0.00,,,0.00,meteobridge,2013-11-24 02:05:00,
2013-11-23 21:10:00,30.4,14.9,30.42,West,268,6.9,14.1,52,0.00,,,0.00,meteobridge,2013-11-24 02:10:00,
2013-11-23 21:15:00,30.0,14.5,30.42,NW,319,0.9,15.0,52,0.00,,,0.00,meteobridge,2013-11-24 02:15:00,
2013-11-23 21:20:00,30.0,14.9,30.42,NE,35,2.0,6.9,53,0.00,,,0.00,meteobridge,2013-11-24 02:20:00,
2013-11-23 21:25:00,30.0,15.4,30.42,West,272,6.0,6.9,54,0.00,,,0.00,meteobridge,2013-11-24 02:25:00,
2013-11-23 21:30:00,30.0,14.9,30.43,North,1,2.0,14.1,53,0.00,,,0.00,meteobridge,2013-11-24 02:30:00,
2013-11-23 21:35:00,29.8,14.4,30.43,NNE,25,8.1,19.9,52,0.00,,,0.00,meteobridge,2013-11-24 02:35:00,
2013-11-23 21:40:00,29.5,14.0,30.43,WNW,292,8.1,14.1,52,0.00,,,0.00,meteobridge,2013-11-24 02:40:00,
2013-11-23 21:45:00,29.5,14.5,30.44,West,261,0.9,8.1,53,0.00,,,0.00,meteobridge,2013-11-24 02:45:00,
2013-11-23 21:50:00,29.5,14.5,30.44,WNW,291,6.0,8.9,53,0.00,,,0.00,meteobridge,2013-11-24 02:50:00,
2013-11-23 21:55:00,29.5,14.9,30.44,West,265,0.9,8.1,54,0.00,,,0.00,meteobridge,2013-11-24 02:55:00,
2013-11-23 22:00:00,29.3,14.7,30.45,WNW,289,2.0,12.1,54,0.00,,,0.00,meteobridge,2013-11-24 03:00:00,
2013-11-23 22:05:00,29.3,14.7,30.45,West,278,4.9,16.1,54,0.00,,,0.00,meteobridge,2013-11-24 03:05:00,
2013-11-23 22:10:00,29.1,14.5,30.45,West,264,2.0,10.1,54,0.00,,,0.00,meteobridge,2013-11-24 03:10:00,
2013-11-23 22:15:00,29.1,14.5,30.45,WNW,295,0.0,2.9,54,0.00,,,0.00,meteobridge,2013-11-24 03:15:00,
2013-11-23 22:20:00,29.1,14.9,30.45,WNW,296,4.9,14.1,55,0.00,,,0.00,meteobridge,2013-11-24 03:20:00,
2013-11-23 22:25:00,28.8,16.2,30.45,NNE,14,8.1,10.1,59,0.00,,,0.00,meteobridge,2013-11-24 03:25:00,
2013-11-23 22:30:00,28.2,15.3,30.46,North,11,2.9,13.0,58,0.00,,,0.00,meteobridge,2013-11-24 03:30:00,
2013-11-23 22:35:00,28.0,14.7,30.46,WSW,256,19.0,19.0,57,0.00,,,0.00,meteobridge,2013-11-24 03:35:00,
2013-11-23 22:40:00,28.0,14.4,30.46,North,7,0.9,10.1,56,0.00,,,0.00,meteobridge,2013-11-24 03:40:00,
2013-11-23 22:45:00,28.0,14.4,30.46,NE,34,0.0,8.9,56,0.00,,,0.00,meteobridge,2013-11-24 03:45:00,
2013-11-23 22:50:00,28.0,13.5,30.46,WNW,289,8.1,8.1,54,0.00,,,0.00,meteobridge,2013-11-24 03:50:00,
2013-11-23 22:55:00,28.0,12.7,30.46,NNW,332,2.9,4.9,52,0.00,,,0.00,meteobridge,2013-11-24 03:55:00,
2013-11-23 23:00:00,28.0,12.2,30.46,SW,222,2.9,12.1,51,0.00,,,0.00,meteobridge,2013-11-24 04:00:00,
2013-11-23 23:05:00,28.0,12.2,30.46,North,0,0.0,8.1,51,0.00,,,0.00,meteobridge,2013-11-24 04:05:00,
2013-11-23 23:10:00,27.9,12.9,30.46,WNW,282,2.0,8.1,53,0.00,,,0.00,meteobridge,2013-11-24 04:10:00,
2013-11-23 23:15:00,27.9,12.9,30.47,NW,326,0.9,6.9,53,0.00,,,0.00,meteobridge,2013-11-24 04:15:00,
2013-11-23 23:20:00,27.9,13.5,30.47,West,277,4.0,8.1,54,0.00,,,0.00,meteobridge,2013-11-24 04:20:00,
2013-11-23 23:25:00,27.9,13.5,30.47,NNW,340,0.9,6.0,54,0.00,,,0.00,meteobridge,2013-11-24 04:25:00,
2013-11-23 23:30:00,27.9,13.5,30.47,North,359,2.0,6.9,54,0.00,,,0.00,meteobridge,2013-11-24 04:30:00,
2013-11-23 23:35:00,27.7,13.6,30.47,SE,144,2.0,2.9,55,0.00,,,0.00,meteobridge,2013-11-24 04:35:00,
2013-11-23 23:40:00,27.3,13.3,30.47,WNW,298,0.0,6.0,55,0.00,,,0.00,meteobridge,2013-11-24 04:40:00,
2013-11-23 23:45:00,27.1,13.5,30.47,WNW,295,4.0,12.1,56,0.00,,,0.00,meteobridge,2013-11-24 04:45:00,
2013-11-23 23:51:00,27.0,13.8,30.47,West,275,0.9,4.9,57,0.00,,,0.00,meteobridge,2013-11-24 04:51:00,
2013-11-23 23:56:00,27.0,13.8,30.47,WSW,246,0.9,8.1,57,0.00,,,0.00,meteobridge,2013-11-24 04:56:00,